Location: Bailly-Romainvilliers
(48.8473°N, 2.8235°E)
Time: 15:31:59
(UTC+00:00)

Daily predictions for brighter satellites

Satellite Brightness Start Highest point End
(mag) Time Altitude Azimuth Time Altitude Azimuth Time Altitude Azimuth
Cosmos 1420 Rocket 4.2 17:13:23 10° S 17:18:30 53° ESE 17:23:36 10° NNE
CZ-4C R/B 3.9 17:14:44 10° WNW 17:19:28 26° NNW 17:24:58 10° NE
Cosmos 1140 Rocket 4.5 17:14:38 10° NNW 17:19:39 53° WSW 17:24:39 10° S
Cosmos 1954 Rocket 4.1 17:14:29 10° NNW 17:19:42 86° WSW 17:24:55 10° SSE
Cosmos 1703 3.7 17:17:39 10° N 17:21:24 41° ENE 17:25:08 10° SSE
USA 281 4.0 17:16:21 10° S 17:22:47 57° WSW 17:29:17 10° NNW
CZ-4B R/B 1.3 17:20:38 10° NNE 17:23:57 61° ESE 17:27:09 10° S
Cosmos 1908 3.8 17:21:12 10° SSE 17:24:42 35° E 17:28:13 10° NNE
Cosmos 1470 4.0 17:21:14 10° SSW 17:24:57 46° WNW 17:28:44 10° N
NOSS 3-1 (A) 4.1 17:17:46 10° NW 17:25:10 82° NE 17:33:49 10° SE
Cosmos 1943 Rocket 2.8 17:21:28 10° SW 17:26:57 58° WNW 17:32:25 10° NNE
Cosmos 1655 Rocket 4.1 17:20:46 10° N 17:27:12 75° E 17:33:36 10° SSE
CZ-4 R/B 2.3 17:23:59 10° ESE 17:27:16 26° ENE 17:30:33 10° N
Cosmos 2227 Rocket 3.8 17:23:54 10° N 17:27:30 17° NE 17:31:04 10° ENE
Cosmos 2279 Rocket 4.1 17:21:38 10° S 17:27:55 88° W 17:34:12 10° N
CZ-2D R/B 3.9 17:24:39 10° SE 17:28:05 32° ENE 17:31:31 10° N
Okean O Rocket 2.3 17:23:50 10° S 17:28:09 60° WSW 17:32:30 10° NNW
IRS-1C Rocket 4.2 17:23:58 10° SE 17:29:05 56° ENE 17:34:14 10° N
FengYun 1-2 T 4.3 17:23:36 10° SSE 17:29:16 85° ENE 17:34:57 10° NNW
Cosmos 1371 Rocket 4.5 17:25:32 10° SSW 17:30:51 67° WNW 17:36:09 10° NNE
Cosmos 1741 Rocket 4.2 17:25:58 10° NNW 17:31:07 50° ENE 17:36:11 10° SE
SMAP 3.8 17:26:44 10° S 17:31:19 58° W 17:35:57 10° NNW
Cosmos 1758 4.3 17:27:23 10° SSW 17:31:23 53° WNW 17:35:25 10° N
USA 305 3.5 17:30:03 10° W 17:34:16 52° NNW 17:38:29 10° ENE
ERBS 2.2 17:31:37 10° SW 17:34:56 74° SE 17:38:17 10° ENE
Cosmos 2263 4.3 17:29:40 10° SSW 17:35:28 84° ESE 17:41:16 10° NNE
ATLAS 5 CENTAUR R/B 1.7 17:32:13 10° SW 17:36:18 73° NW 17:41:00 10° NE
COSMO-SKYMED 1 2.9 17:33:35 10° NNE 17:37:44 42° E 17:41:52 10° S
ATLAS 2AS CENTAUR R/B 4.3 17:33:21 10° WNW 17:39:50 27° N 17:46:03 10° NE
USA 306 3.5 17:36:06 10° W 17:40:17 50° NNW 17:44:16 11° ENE
Lacrosse 5 1.9 17:35:13 10° SW 17:40:18 84° NNW 17:45:24 10° NE
NOSS 2-1 (C) 2.9 17:38:03 10° SW 17:41:22 89° WNW 17:44:58 10° NE
USA 276 2.9 17:38:42 10° W 17:41:50 48° SSW 17:44:56 10° SE
Cosmos 2056 Rocket 4.1 17:36:55 10° SW 17:42:04 61° WNW 17:47:11 10° NNE
H-2A R/B 2.9 17:40:33 10° ESE 17:45:11 31° ENE 17:49:53 10° N
GRACE-FO 1 4.5 17:41:46 10° N 17:45:24 82° E 17:48:59 10° S
GRACE-FO 2 4.5 17:42:08 10° N 17:45:46 83° E 17:49:22 10° S
SAR-Lupe-4 3.5 17:42:30 10° NNE 17:46:06 72° ESE 17:49:40 10° S
USA 215 3.6 17:40:04 11° E 17:46:18 55° NNE 17:52:39 10° WNW
NOSS 2-1 (D) 3.0 17:43:16 10° SW 17:46:35 79° NW 17:50:11 10° NE
ARGOS 4.2 17:43:30 10° ESE 17:47:53 26° ENE 17:52:16 10° N
Okean-O 2.8 17:44:29 10° SE 17:48:47 50° ENE 17:53:05 10° N
Cosmos 1328 3.7 17:44:52 10° N 17:48:49 66° ENE 17:52:43 10° SSE
COSMOS 2487 2.6 17:46:40 10° NNW 17:50:03 48° ENE 17:53:23 10° SE
Cosmos 1850 Rocket 4.0 17:45:37 10° NNW 17:50:56 74° ENE 17:56:14 10° SSE
SeaSat 1 2.8 17:46:57 10° ESE 17:51:37 44° NE 17:56:18 10° NNW
H-2A R/B 4.1 17:48:51 10° N 17:52:31 29° WNW 17:56:08 10° SW
CSL-04 Rocket 4.2 17:48:46 10° SE 17:53:50 38° ENE 17:58:54 10° N
Cosmos 1825 Rocket 3.6 17:53:38 10° N 17:58:04 58° ENE 18:02:26 10° SSE
Cosmos 1452 Rocket 3.5 17:53:42 10° SSW 17:58:56 73° ESE 18:04:12 10° NNE
Cosmos 2098 Rocket 4.1 17:56:05 10° NNW 17:59:27 37° W 18:02:19 10° SSW
Cosmos 1300 3.5 17:56:22 10° SSE 17:59:40 29° E 18:03:01 10° NNE
YAOGAN 1 2.7 17:55:49 10° SE 17:59:59 50° ENE 18:04:11 10° N
CZ-4 R/B 4.4 17:56:58 10° SSE 18:01:08 81° ENE 18:05:19 10° NNW
SKYMED 3 4.5 17:57:26 10° NNE 18:01:48 74° ESE 18:06:08 10° S
Cosmos 304 Rocket 3.9 17:59:13 10° SSW 18:03:59 78° WNW 18:08:48 10° NNE
SAR-Lupe-1 4.2 18:00:25 10° NNE 18:04:01 77° WNW 18:07:36 10° SSW
Cosmos 1656 Rocket 3.9 18:01:06 10° SSW 18:06:39 75° WNW 18:12:20 10° NNE
Cosmos 1400 Rocket 4.4 18:03:42 10° SE 18:12:03 - NNE 18:05:30 18° ESE
Meteor 2-21 Rocket 4.4 18:00:57 10° N 18:07:09 67° ENE 18:13:15 10° SSE
Cosmos 1726 4.4 18:04:12 10° SW 18:07:26 28° WNW 18:10:43 10° NNW
CZ-2C R/B 3.3 18:02:21 10° SSE 18:08:04 61° ENE 18:13:45 10° N
Cosmos 2297 Rocket 3.1 18:04:27 10° NNW 18:09:28 31° NE 18:12:08 21° E
Cosmos 2266 Rocket 4.3 18:04:04 10° NNW 18:10:12 70° W 18:16:25 10° S
Cosmos 2369 Rocket 3.3 18:05:00 10° SW 18:10:24 44° NW 18:15:53 10° NNE
Cosmos 1689 Rocket 2.1 18:08:06 10° N 18:11:00 76° WNW 18:13:53 10° SSW
BREEZE-M R/B 3.7 18:03:03 10° W 18:12:37 87° NNW 18:14:14 28° E
Cosmos 1758 Rocket 3.7 18:08:54 10° NNW 18:13:22 79° W 18:17:45 10° S
Cosmos 1726 Rocket 3.6 18:13:28 10° SSE 18:17:39 50° E 18:21:53 10° NNE
Cosmos 1818 3.7 18:13:29 10° SW 18:18:55 78° NW 18:24:24 10° NE
USA 307 3.7 18:16:22 10° WNW 18:20:29 42° N 18:22:42 23° NE
PSLV R/B 4.0 18:18:06 10° NNE 18:22:20 80° WNW 18:26:30 10° SSW
Cosmos 1953 4.5 18:21:04 10° SW 18:24:31 28° WNW 18:28:00 10° N
Helios 1A Rocket 3.5 18:20:32 10° S 18:24:37 61° WSW 18:28:44 10° NNW
USA 308 3.7 18:21:00 10° WNW 18:25:05 42° N 18:27:06 25° NE
CSL-04 Debris 4.1 18:19:50 10° SSE 18:25:11 67° ENE 18:30:37 10° N
SKYMED 2 4.0 18:21:33 10° N 18:25:52 65° WNW 18:30:10 10° SSW
Ariane Rocket 3.9 18:26:42 27° ENE 18:27:22 28° ENE 18:31:39 10° N
Cosmos 2219 3.7 18:23:07 10° NNW 18:28:34 42° NE 18:30:55 29° E
Timation 2 Rocket 4.1 18:22:47 10° NNW 18:29:14 63° NE 18:34:14 19° SE
FALCON 9 DEB 3.3 18:26:37 10° WSW 18:30:01 63° NNW 18:31:01 40° NE
USA 116 4.4 18:25:11 10° NNE 18:30:15 61° E 18:35:31 10° S
Cosmos 1606 Rocket 3.4 18:26:02 10° S 18:30:22 85° E 18:34:47 10° N
Geosat 3.9 18:26:56 10° NNE 18:32:00 87° ESE 18:37:02 10° SSW
SL-4 R/B 1.6 18:28:30 10° WSW 18:32:05 89° NNW 18:33:10 45° ENE
SL-08 RB Rocket 4.2 18:33:51 35° E 18:34:16 36° ENE 18:38:23 10° N
Cosmos 1340 2.8 18:38:12 10° N 18:41:40 51° ENE 18:41:40 51° ENE
Cosmos 1346 Rocket 4.4 18:39:24 10° N 18:41:13 21° NNE 18:41:13 21° NNE
Cosmos 2058 4.2 18:42:19 10° N 18:44:32 25° NNE 18:44:32 25° NNE
S3M 4.2 18:40:40 10° SSE 18:46:17 41° E 18:51:58 10° NNE
Cosmos 2058 Rocket 3.0 18:43:29 10° S 18:47:54 66° E 18:52:23 10° NNE
CRYOSAT 2 4.3 18:43:08 10° NNE 18:47:57 56° E 18:52:43 10° S
Cosmos 1331 Rocket 3.8 18:46:18 10° SSW 18:51:28 80° ESE 18:56:39 10° NNE
Cosmos 2228 3.7 18:47:47 10° SSW 18:51:57 55° WNW 18:56:09 10° N
Cosmos 1953 Rocket 4.1 18:50:11 10° NNW 18:54:29 57° W 18:58:48 10° S
Cosmos 292 Rocket 3.6 18:52:42 10° S 18:57:26 68° ESE 18:59:05 40° NE
MOS 1 Rocket 3.1 18:54:18 10° NNE 18:58:47 86° ESE 19:03:30 10° SSW
Cosmos 1417 Rocket 4.4 18:54:08 10° S 19:00:14 64° E 19:06:29 10° NNE
NOSS 2-2 (E) 4.4 18:55:52 10° NW 19:01:21 80° NE 19:04:16 38° SE
CZ-4 R/B 3.2 18:58:42 10° SSW 19:02:14 31° W 19:05:44 10° NNW
Aureole 3 Rocket 2.8 19:04:09 35° SSW 19:05:36 78° WNW 19:10:06 10° N
MetOp-A 4.3 19:06:21 50° ENE 19:06:21 50° ENE 19:11:27 10° N
CZ-4C R/B 4.2 19:05:11 10° NW 19:10:11 24° N 19:12:49 19° NE
ERBS 4.1 19:08:32 10° W 19:11:11 27° NNW 19:11:11 27° NNW
Cosmos 2227 Rocket 2.1 19:07:05 10° NNW 19:12:44 64° ENE 19:13:11 61° E
Cosmos 1486 Rocket 4.0 19:07:39 10° NNW 19:12:59 62° ENE 19:13:00 62° ENE
Cosmos 1110 Rocket 4.4 19:08:02 10° SW 19:13:15 64° WNW 19:18:29 10° NNE
USA 305 3.7 19:10:44 10° WNW 19:14:40 42° N 19:14:40 42° N
Cosmos 1302 Rocket 4.0 19:11:28 10° SSW 19:16:03 63° SSE 19:16:03 63° SSE
NOSS 2-2 (D) 4.4 19:11:52 10° NW 19:17:17 84° NE 19:19:03 53° SE
Cosmos 1892 3.8 19:15:23 10° NNW 19:17:51 38° NNW 19:17:51 38° NNW
Cosmos 1553 Rocket 4.0 19:13:27 10° S 19:19:51 85° W 19:26:13 10° N
USA 306 3.8 19:16:46 10° WNW 19:20:24 41° NNW 19:20:24 41° NNW
ATLAS 5 CENTAUR R/B 3.8 19:18:25 10° WNW 19:21:49 21° NNW 19:24:08 16° NNE
Lacrosse 5 2.9 19:19:07 10° W 19:23:48 37° NNW 19:24:50 33° NNE
H-2A R/B 3.1 19:19:15 10° S 19:24:23 47° W 19:29:40 10° NNW
Cosmos 968 Rocket 3.5 19:19:51 10° NNW 19:24:40 68° NNE 19:24:40 68° NNE
ARGOS 3.7 19:23:47 18° S 19:27:47 58° W 19:33:09 10° NNW
USA 215 3.3 19:27:26 51° SSE 19:29:11 74° SW 19:35:46 10° WNW
SeaSat 1 3.9 19:25:37 14° S 19:29:13 34° WSW 19:33:42 10° NW
Cosmos 2263 Rocket 3.9 19:26:34 10° N 19:29:39 20° NNE 19:29:39 20° NNE
CZ-2C R/B 3.7 19:26:07 10° NNE 19:29:06 32° NNE 19:29:06 32° NNE
ATLAS 2AS CENTAUR R/B 3.7 19:26:12 10° NW 19:33:08 34° NNE 19:34:19 33° NE
BREEZE-M R/B 4.0 19:29:53 10° W 19:34:36 84° N 19:35:53 63° E
Cosmos 1745 Rocket 4.2 19:36:41 10° NNW 19:42:54 68° W 19:45:39 35° SSW
IRS-1A Rocket 4.5 19:52:24 66° WSW 19:52:33 66° WSW 19:58:08 10° NNW
Cosmos 2297 Rocket 2.6 19:48:18 10° NW 19:53:52 57° WSW 19:53:58 57° WSW
Ariane Rocket 4.0 20:06:54 44° WNW 20:06:54 44° WNW 20:11:04 10° NNW
Cosmos 2219 4.3 20:07:25 10° NW 20:12:43 39° WSW 20:12:52 39° WSW
DEBRIS 4.5 19:59:55 10° WSW 20:12:15 62° SW 20:12:15 62° SW
Cosmos 1709 Rocket 4.3 20:07:18 10° NNW 20:12:55 64° NW 20:12:55 64° NW
Cosmos 2227 Rocket 4.3 20:51:55 10° NW 20:55:02 22° W 20:55:02 22° W
CZ-4C R/B 4.0 20:54:03 10° NW 20:58:00 33° N 20:58:00 33° N
ATLAS 2AS CENTAUR R/B 4.1 21:17:33 10° NW 21:21:44 36° NW 21:21:44 36° NW
